Regional Weather Roundup
Issued by NWS

Home | Current Version | Previous Version | Text Only | Print | Product List | Glossary Off
Versions: 1 2 3 4 5 6 7 8 9 10 11 12 13 14 15 16 17 18 19 20 21 22 23 24 25 26 27 28 29 30 31 32 33 34 35 36 37 38 39 40 41 42 43 44 45 46 47 48 49

000
ASUS45 KCYS 021810
RWRWY

WYOMING REGIONAL WEATHER ROUNDUP
NATIONAL WEATHER SERVICE CHEYENNE WY
1200 PM MDT SUN AUG 02 2015

NOTE:  "FAIR" INDICATES FEW OR NO CLOUDS BELOW 12,000 FEET
WITH NO SIGNIFICANT WEATHER AND/OR OBSTRUCTIONS TO VISIBILITY.

WYZ001-021900-
YELLOWSTONE NATIONAL PARK

CITY           SKY/WX    TMP DP  RH WIND       PRES   REMARKS
LK YELLOWSTONE   N/A     66  39  37 SE5       30.35F
6HR MIN TEMP:  39; 6HR MAX TEMP:  67;

W YELLOWSTONE  NOT AVBL

$$
WYZ002>013-054>058-071-098>099-021900-
NORTHERN WYOMING

CITY           SKY/WX    TMP DP  RH WIND       PRES   REMARKS
JACKSON        SUNNY     72  39  30 CALM      30.24F
CODY           FAIR      81  45  28 NE13      30.11F
GREYBULL       FAIR      87  30  13 SE3       30.01F
6HR MIN TEMP:  56; 6HR MAX TEMP:  87;

WORLAND        FAIR      87  37  17 NE5       30.03F
6HR MIN TEMP:  50; 6HR MAX TEMP:  87;

SHERIDAN       FAIR      87  39  18 NW18      30.04R
6HR MIN TEMP:  56; 6HR MAX TEMP:  89;

BUFFALO        FAIR      87  40  19 N17       30.09S
6HR MIN TEMP:  65; 6HR MAX TEMP:  87;

GILLETTE       FAIR      90  38  16 N14G26    30.03S
6HR MIN TEMP:  68; 6HR MAX TEMP:  91;

HULETT         FAIR      79  50  36 E8        30.06S
NEWCASTLE      FAIR      88  36  15 NW3       30.02S

$$
WYZ014>020-022>026-101>103-021900-
CENTRAL WYOMING

CITY           SKY/WX    TMP DP  RH WIND       PRES   REMARKS
BIG PINEY      FAIR      81  30  15 VRB5      30.25F
6HR MIN TEMP:  45; 6HR MAX TEMP:  81;

PINEDALE       FAIR      81  27  13 CALM      30.26S
DUBOIS         FAIR      79  23  12 E3        30.26S
LANDER         FAIR      86  31  13 N6        30.12F
6HR MIN TEMP:  59; 6HR MAX TEMP:  86;

RIVERTON       FAIR      85  33  15 VRB3      30.13F
6HR MIN TEMP:  59; 6HR MAX TEMP:  85;

CASPER         FAIR      88  30  12 VRB3      30.10F
6HR MIN TEMP:  54; 6HR MAX TEMP:  89;

DOUGLAS        FAIR      92  39  15 W7        30.07F
6HR MIN TEMP:  54; 6HR MAX TEMP:  92;


$$
WYZ021-027>030-104>119-021900-
SOUTHERN WYOMING

CITY           SKY/WX    TMP DP  RH WIND       PRES   REMARKS
EVANSTON       FAIR      82  30  15 N8        30.23F
6HR MIN TEMP:  55; 6HR MAX TEMP:  82;

KEMMERER       FAIR     N/A N/A N/A CALM      30.25F
FORT BRIDGER   CLEAR     81  27  13 NE8       30.26F
ROCK SPRINGS   FAIR      79  35  20 E7        30.21F
6HR MIN TEMP:  54; 6HR MAX TEMP:  79;

DIXON          FAIR      84  41  21 W8        30.22F
RAWLINS        FAIR      82  39  21 VRB5      30.22F
6HR MIN TEMP:  49; 6HR MAX TEMP:  82;

SARATOGA       FAIR      81  36  19 NW5       30.25S
LARAMIE        FAIR      83  41  22 NE10      30.23F
6HR MIN TEMP:  47; 6HR MAX TEMP:  83;

CHEYENNE       FAIR      87  46  24 NE9       30.15S
6HR MIN TEMP:  56; 6HR MAX TEMP:  88;

TORRINGTON     FAIR      88  56  33 SE5       30.00F
6HR MIN TEMP:  57; 6HR MAX TEMP:  88;

PINE BLUFFS    FAIR      88  45  22 E8        30.08F

$$



USA.gov is the U.S. government's official web portal to all federal, state and local government web resources and services.